#timestamp,LO_Frequency,Hit 
1499788815.4,286047001.9,N
1499788835.2,286047002.3,N
1499788855.1,286047002.5,N
1499788856.0,286047002.5,N
1499788875.8,286047000.1,N
1499788895.7,286046999.7,N
1499788915.5,286047002.6,N
1499788935.3,286047002.5,N
1499788955.2,286046999.9,N
1499788975.0,286046999.9,N
1499788975.9,286046999.9,N
1499788995.8,286046998.2,N
1499789015.6,286047000.9,N
1499789035.4,286047000.4,N
1499789055.3,286046998.2,N
1499789075.1,286046998.3,N
1499789095.8,286046998.1,N
1499789115.7,286046998.9,N
1499789135.5,286046999.2,N
1499789155.4,286046999.0,N
1499789175.2,286046999.0,N
1499789195.0,286046999.5,N
1499789195.9,286046999.5,N
1499789215.8,286046999.1,N
1499789235.6,286046999.1,N
1499789255.5,286046999.6,N
1499789275.3,286046997.6,N
1499789295.1,286046997.7,N
1499789315.9,286046997.5,N
1499789335.7,286046994.9,N
1499789355.5,286046998.0,N
1499789375.4,286046995.7,N
1499789395.2,286046995.6,N
1499789415.1,286046995.6,N
1499789416.0,286046995.6,N
1499789435.8,286046996.1,N
1499789455.6,286046996.1,N
1499789475.5,286046995.8,N
1499789495.3,286046995.5,N
1499789515.1,286046995.8,N
1499789535.9,286046996.2,N
1499789555.7,286046993.4,N
1499789575.6,286046994.5,N
1499789595.4,286046996.0,N
1499789615.2,286046996.1,N
1499789635.1,286046996.0,N
1499789636.0,286046996.0,N
1499789655.8,286046994.0,N
1499789675.7,286046995.8,N
1499789695.5,286046995.2,N
1499789715.3,286046995.8,N
1499789735.2,286046993.3,N
1499789755.0,286046993.3,N
1499789755.9,286046993.3,N
1499789775.7,286046994.3,N
1499789795.6,286046994.7,N
1499789815.4,286046994.2,N
1499789835.3,286046994.6,N
1499789855.1,286046991.7,N
1499789856.0,286046991.7,N
1499789875.8,286046991.9,N
1499789895.7,286046992.5,N
1499789915.5,286046992.3,N
1499789935.3,286046992.2,N
1499789955.2,286046992.3,N
1499789975.0,286046992.1,N
1499789975.9,286046992.1,N
1499789995.8,286046992.1,N
1499790015.6,286046992.4,N
1499790035.4,286046994.8,N
1499790055.3,286046994.8,N
1499790075.1,286046993.6,N
1499790095.9,286046995.4,N
1499790115.7,286046996.1,N
1499790135.5,286046993.7,N
1499790155.4,286046994.6,N
1499790175.2,286046994.3,N
1499790195.0,286046994.5,N
1499790195.9,286046994.5,N
1499790215.8,286046996.3,N
1499790235.6,286046993.5,N
1499790255.5,286046993.9,N
1499790275.3,286046993.8,N
1499790295.1,286046993.6,N
1499790315.9,286046996.1,N
1499790335.7,286046996.0,N
1499790355.6,286046993.4,N
1499790375.4,286046996.2,N
1499790395.2,286046993.7,N
1499790415.1,286046993.6,N
1499790416.0,286046993.6,N
1499790435.8,286046996.2,N
1499790455.6,286046996.4,N
1499790475.5,286046993.6,N
1499790495.3,286046994.5,N
1499790515.2,286046994.3,N
1499790535.9,286046995.9,N
1499790555.7,286046996.0,N
1499790575.6,286046996.4,N
1499790595.4,286046996.2,N
1499790615.2,286046996.1,N
1499790635.1,286046996.2,N
1499790636.0,286046996.2,N
1499790655.8,286046996.0,N
1499790675.7,286046996.1,N
1499790695.5,286046993.8,N
1499790715.3,286046993.8,N
1499790735.2,286046996.1,N
1499790755.0,286046995.6,N
1499790755.9,286046995.6,N
1499790775.8,286046996.1,N
1499790795.6,286046996.2,N
1499790815.4,286046993.3,N
1499790835.3,286046996.4,N
1499790855.1,286046994.2,N
1499790875.8,286046994.8,N
1499790895.7,286046994.4,N
1499790915.5,286046994.3,N
1499790935.4,286046993.7,N
1499790955.2,286046995.0,N
1499790975.0,286046997.9,N
1499790975.9,286046997.9,N
1499790995.8,286046995.2,N
1499791015.6,286046996.0,N
1499791035.4,286046995.4,N
1499791055.3,286046995.7,N
1499791075.1,286046996.2,N
1499791095.9,286046995.3,N
1499791115.7,286046996.1,N
1499791135.5,286046995.4,N
1499791155.4,286046995.6,N
1499791175.2,286046997.6,N
1499791195.0,286046997.5,N
1499791195.9,286046997.5,N
1499791215.8,286046997.8,N
1499791235.6,286046997.3,N
1499791255.5,286046997.8,N
1499791275.3,286046997.6,N
1499791295.1,286046995.5,N
1499791315.9,286046998.0,N
1499791335.7,286046995.4,N
1499791355.6,286046997.9,N
1499791375.4,286046995.5,N
1499791395.2,286046995.7,N
1499791415.1,286046995.3,N
1499791416.0,286046995.3,N
1499791435.8,286046996.8,N
1499791455.6,286046997.9,N
1499791475.5,286046997.7,N
1499791495.3,286046997.4,N
1499791515.2,286046996.9,N
1499791535.9,286046999.0,N
1499791555.7,286046996.6,N
1499791575.6,286046996.5,N
1499791595.4,286046999.1,N
1499791615.2,286046996.6,N
1499791635.1,286046996.8,N
1499791666.0,286046997.0,Y
1499791675.0,286046998.7,N
1499791675.9,286046998.7,N
1499791695.8,286046998.5,N
1499791715.6,286047000.9,N
1499791735.5,286047000.6,N
1499791755.3,286046998.1,N
1499791775.1,286046998.6,N
1499791795.9,286047000.4,N
1499791815.7,286047000.0,N
1499791835.5,286047002.8,N
1499791855.4,286046999.7,N
1499791875.2,286047002.8,N
1499791895.1,286047000.5,N
1499791896.0,286047000.5,N
1499791915.8,286047002.7,N
1499791935.6,286046999.8,N
1499791955.5,286047001.0,N
1499791975.3,286046999.7,N
1499791995.1,286047002.6,N
1499792015.9,286047000.0,N
1499792035.7,286047000.9,N
1499792055.6,286047000.0,N
1499792075.4,286047002.7,N
1499792095.2,286047002.7,N
1499792115.1,286046999.8,N
1499792116.0,286046999.8,N
1499792135.8,286047000.1,N
1499792155.7,286047001.9,N
1499792175.5,286047004.4,N
1499792195.3,286047001.6,N
1499792215.2,286047004.0,N
1499792235.9,286047001.9,N
1499792255.7,286047001.5,N
1499792275.6,286047001.6,N
1499792295.4,286047001.4,N
1499792315.3,286047004.0,N
1499792335.1,286047001.5,N
1499792336.0,286047001.5,N
1499792355.8,286047002.4,N
1499792375.7,286047001.6,N
1499792395.5,286047001.4,N
